Falfurrias, TX

8:01 PM CST on November 19, 2019 (GMT -0600)
Falfurrias

Weather History for KBKS - September, 2019

Change the Weather History Date:

Wednesday, September 4, 2019

  Actual Average (WUND) Record (WUND)
Temperature  
Mean Temperature 82 °F -  
Max Temperature 88 °F - - (-1)
Min Temperature 77 °F - - (-1)
Cooling Degree Days 18    
Growing Degree Days 32 (Base 50)    
Moisture  
Dew Point 77 °F    
Average Humidity 83    
Maximum Humidity 91    
Minimum Humidity 64    
Precipitation  
Precipitation 2.03 in - - ()
Sea Level Pressure  
Sea Level Pressure 29.90 in    
Wind  
Wind Speed 8 mph ()    
Max Wind Speed 20 mph    
Max Gust Speed 30 mph    
Visibility 8.7 miles    
Events      
Averages and records for this station are not official NWS values.
T = Trace of Precipitation, MM = Missing Value Source: Averaged Metar Reports

Daily Weather History Graph

Daily Weather History Graph

Search for Another Location

Airport or City:

Astronomy

Sep. 04, 2019 Rise Set
Actual Time 7:12 AM CDT 7:49 PM CDT
Civil Twilight 6:49 AM CDT 8:13 PM CDT
Nautical Twilight 6:21 AM CDT 8:40 PM CDT
Astronomical Twilight 5:53 AM CDT 9:08 PM CDT
Moon 12:44 PM CDT (9/4) 11:58 PM CDT (9/4)
Length of Visible Light 13h 23m
Length of Day
12h 36m
Waxing Crescent, 35% of the Moon is Illuminated
Sep 4
Waxing Crescent
Sep 5
First Quarter
Sep 13
Full
Sep 21
Last Quarter
Sep 28
New

Hourly Weather History & Observations

Time (CDT) Temp. Heat Index Dew Point Humidity Pressure Visibility Wind Dir Wind Speed Gust Speed Precip Events Conditions
12:15 AM 82.4 °F 90.6 °F 76.6 °F 83% 29.90 in 10.0 mi North 3.5 mph - N/A   Scattered Clouds
12:35 AM 82.4 °F 90.1 °F 76.1 °F 81% 29.88 in 10.0 mi North 4.6 mph - N/A   Clear
12:55 AM 82.8 °F 90.7 °F 76.1 °F 80% 29.88 in 10.0 mi North 4.6 mph - N/A   Clear
1:15 AM 82.9 °F 91.2 °F 76.1 °F 80% 29.88 in 10.0 mi North 5.8 mph - N/A   Clear
1:35 AM 82.9 °F 90.8 °F 75.7 °F 79% 29.87 in 10.0 mi North 4.6 mph - N/A   Clear
1:55 AM 82.8 °F 90.4 °F 75.6 °F 79% 29.87 in 10.0 mi North 6.9 mph - N/A   Clear
2:15 AM 82.8 °F 90.1 °F 75.4 °F 78% 29.87 in 10.0 mi North 6.9 mph - N/A   Clear
2:35 AM 82.9 °F 90.2 °F 75.2 °F 77% 29.87 in 10.0 mi NNE 6.9 mph - N/A   Clear
2:55 AM 82.8 °F 90.1 °F 75.2 °F 78% 29.86 in 10.0 mi North 8.1 mph - N/A   Clear
3:15 AM 82.8 °F 90.1 °F 75.2 °F 78% 29.86 in 10.0 mi North 8.1 mph - N/A   Mostly Cloudy
3:35 AM 82.8 °F 89.8 °F 75.0 °F 77% 29.85 in 10.0 mi North 8.1 mph - N/A   Mostly Cloudy
3:55 AM 82.4 °F 89.0 °F 74.5 °F 77% 29.85 in 10.0 mi North 9.2 mph - N/A   Mostly Cloudy
4:15 AM 82.0 °F 88.9 °F 75.2 °F 80% 29.86 in 10.0 mi North 9.2 mph - N/A   Mostly Cloudy
4:35 AM 81.0 °F 87.3 °F 76.1 °F 85% 29.87 in 5.0 mi East 11.5 mph 18.4 mph 0.01 in   Overcast
4:55 AM 77.7 °F - 74.5 °F 90% 29.87 in 7.0 mi ENE 4.6 mph - 0.09 in   Unknown
5:15 AM 78.4 °F - 75.4 °F 90% 29.88 in 10.0 mi NNW 5.8 mph - N/A   Mostly Cloudy
5:35 AM 79.0 °F - 75.7 °F 90% 29.87 in 7.0 mi North 4.6 mph - 0.02 in   Overcast
5:55 AM 79.0 °F - 76.1 °F 91% 29.89 in 10.0 mi East 16.1 mph 26.5 mph 0.02 in   Overcast
6:15 AM 79.2 °F - 75.6 °F 89% 29.88 in 7.0 mi North 4.6 mph - 0.01 in   Overcast
6:35 AM 79.3 °F - 76.3 °F 90% 29.89 in 10.0 mi Calm Calm - 0.02 in   Overcast
6:55 AM 77.9 °F - 75.0 °F 91% 29.89 in 0.8 mi NE 8.1 mph 17.3 mph 0.48 in   Overcast
7:15 AM 78.1 °F - 75.2 °F 91% 29.88 in 10.0 mi North 5.8 mph - 0.01 in   Mostly Cloudy
7:35 AM 77.5 °F - 74.7 °F 91% 29.90 in 10.0 mi North 4.6 mph - 0.01 in   Scattered Clouds
7:55 AM 77.5 °F - 74.7 °F 91% 29.92 in 0.8 mi ENE 4.6 mph 18.4 mph 0.48 in   Overcast
8:15 AM 77.4 °F - 74.5 °F 91% 29.93 in 3.0 mi East 4.6 mph - 0.10 in   Overcast
8:35 AM 78.1 °F - 75.4 °F 91% 29.92 in 2.5 mi ENE 8.1 mph - 0.58 in   Overcast
8:55 AM 78.3 °F - 75.4 °F 91% 29.92 in 10.0 mi North 8.1 mph - 0.58 in   Scattered Clouds
9:15 AM 78.8 °F - 75.7 °F 90% 29.91 in 10.0 mi NNE 8.1 mph - N/A   Mostly Cloudy
9:35 AM 79.2 °F - 76.1 °F 90% 29.91 in 4.0 mi North 11.5 mph - 0.03 in   Mostly Cloudy
9:55 AM 79.7 °F - 76.1 °F 89% 29.92 in 7.0 mi NNE 11.5 mph - 0.03 in   Scattered Clouds
10:15 AM 80.4 °F 86.3 °F 76.1 °F 87% 29.92 in 7.0 mi North 11.5 mph - N/A   Scattered Clouds
10:35 AM 81.3 °F 88.5 °F 76.6 °F 86% 29.92 in 10.0 mi NNE 10.4 mph - N/A   Scattered Clouds
10:55 AM 84.2 °F 94.1 °F 77.2 °F 79% 29.92 in 10.0 mi NNE 15.0 mph 20.7 mph N/A   Scattered Clouds
11:15 AM 84.4 °F 94.2 °F 77.0 °F 78% 29.92 in 10.0 mi NE 15.0 mph 25.3 mph N/A   Mostly Cloudy
11:35 AM 86.2 °F 97.8 °F 77.4 °F 75% 29.91 in 10.0 mi NNE 15.0 mph 20.7 mph N/A   Scattered Clouds
11:55 AM 86.5 °F 97.8 °F 77.0 °F 73% 29.90 in 10.0 mi NE 16.1 mph 25.3 mph N/A   Scattered Clouds
12:15 PM 86.5 °F 98.3 °F 77.4 °F 74% 29.90 in 10.0 mi NE 18.4 mph 25.3 mph N/A   Mostly Cloudy
12:35 PM 86.0 °F 98.3 °F 78.1 °F 77% 29.89 in 10.0 mi NNE 19.6 mph 26.5 mph N/A   Overcast
12:55 PM 84.0 °F 96.0 °F 79.0 °F 85% 29.90 in 10.0 mi NE 17.3 mph 23.0 mph 0.01 in   Mostly Cloudy
1:15 PM 86.2 °F 99.8 °F 78.8 °F 79% 29.90 in 10.0 mi NE 13.8 mph 21.9 mph N/A   Scattered Clouds
1:35 PM 83.8 °F 94.3 °F 77.9 °F 82% 29.89 in 7.0 mi ENE 12.7 mph 23.0 mph 0.16 in   Mostly Cloudy
1:55 PM 85.8 °F 98.8 °F 78.6 °F 79% 29.90 in 7.0 mi ENE 16.1 mph 23.0 mph 0.16 in   Mostly Cloudy
2:15 PM 88.0 °F 98.0 °F 75.2 °F 66% 29.89 in 10.0 mi ENE 18.4 mph 25.3 mph N/A   Scattered Clouds
2:35 PM 88.9 °F 99.2 °F 75.2 °F 64% 29.89 in 10.0 mi ENE 17.3 mph 28.8 mph N/A   Scattered Clouds
2:55 PM 88.7 °F 99.3 °F 75.4 °F 65% 29.88 in 10.0 mi ENE 18.4 mph 29.9 mph N/A   Scattered Clouds
3:15 PM 88.3 °F 98.4 °F 75.2 °F 65% 29.88 in 10.0 mi ENE 17.3 mph 27.6 mph N/A   Scattered Clouds
3:35 PM 87.8 °F 97.6 °F 75.0 °F 66% 29.87 in 10.0 mi ENE 19.6 mph 29.9 mph N/A   Scattered Clouds
3:55 PM 86.0 °F 95.1 °F 75.0 °F 70% 29.87 in 10.0 mi ENE 17.3 mph 26.5 mph N/A   Mostly Cloudy
4:15 PM 84.2 °F 93.4 °F 76.1 °F 77% 29.88 in 10.0 mi ENE 13.8 mph 20.7 mph 0.01 in   Overcast
4:35 PM 84.4 °F 93.9 °F 76.3 °F 77% 29.88 in 10.0 mi ENE 17.3 mph 25.3 mph 0.02 in   Overcast
4:55 PM 84.0 °F 92.6 °F 75.6 °F 76% 29.89 in 7.0 mi ENE 16.1 mph 25.3 mph 0.02 in   Overcast
5:15 PM 82.8 °F 91.6 °F 77.0 °F 83% 29.90 in 10.0 mi ENE 10.4 mph - N/A   Mostly Cloudy
5:35 PM 82.4 °F 91.5 °F 77.9 °F 86% 29.91 in 7.0 mi ENE 11.5 mph - 0.01 in   Mostly Cloudy
5:55 PM 82.2 °F 91.3 °F 77.9 °F 87% 29.91 in 10.0 mi East 11.5 mph 16.1 mph 0.02 in   Mostly Cloudy
6:15 PM 82.0 °F 90.8 °F 77.9 °F 87% 29.90 in 10.0 mi ENE 13.8 mph 20.7 mph 0.01 in   Mostly Cloudy
6:35 PM 80.6 °F 86.9 °F 76.6 °F 88% 29.90 in 10.0 mi ENE 8.1 mph - 0.03 in   Mostly Cloudy
6:55 PM 81.1 °F 88.7 °F 77.5 °F 89% 29.91 in 10.0 mi ENE 8.1 mph - 0.03 in   Mostly Cloudy
7:15 PM 81.9 °F 90.8 °F 78.3 °F 89% 29.91 in 10.0 mi ENE 9.2 mph - N/A   Mostly Cloudy
7:35 PM 81.9 °F 91.1 °F 78.6 °F 90% 29.91 in 7.0 mi ENE 17.3 mph 21.9 mph N/A   Overcast
7:55 PM 81.7 °F 90.0 °F 77.7 °F 88% 29.91 in 10.0 mi ENE 10.4 mph 17.3 mph N/A   Scattered Clouds
8:15 PM 82.0 °F 91.0 °F 78.1 °F 88% 29.92 in 10.0 mi ENE 10.4 mph - 0.01 in   Scattered Clouds
8:35 PM 82.0 °F 91.0 °F 78.1 °F 88% 29.92 in 10.0 mi ENE 9.2 mph - 0.01 in   Mostly Cloudy
8:55 PM 82.0 °F 90.8 °F 77.9 °F 87% 29.93 in 10.0 mi ENE 9.2 mph - 0.01 in   Overcast
9:15 PM 82.0 °F 90.8 °F 77.9 °F 87% 29.93 in 10.0 mi NE 9.2 mph - N/A   Overcast
9:35 PM 81.9 °F 90.5 °F 78.1 °F 88% 29.94 in 7.0 mi ENE 8.1 mph - N/A   Overcast
9:55 PM 82.4 °F 91.5 °F 77.9 °F 86% 29.94 in 10.0 mi ENE 9.2 mph - N/A   Overcast
10:15 PM 82.4 °F 91.5 °F 77.9 °F 86% 29.95 in 10.0 mi ENE 8.1 mph - N/A   Overcast
10:35 PM 82.0 °F 90.5 °F 77.5 °F 86% 29.95 in 10.0 mi ENE 8.1 mph - N/A   Mostly Cloudy
10:55 PM 81.9 °F 90.5 °F 77.9 °F 88% 29.96 in 10.0 mi NE 5.8 mph - N/A   Mostly Cloudy
11:15 PM 81.9 °F 90.5 °F 78.1 °F 88% 29.96 in 7.0 mi NE 4.6 mph - N/A   Mostly Cloudy
11:35 PM 81.9 °F 90.8 °F 78.3 °F 89% 29.95 in 5.0 mi NE 4.6 mph - N/A   Overcast
11:55 PM 81.5 °F 90.0 °F 78.3 °F 90% 29.96 in 1.2 mi Calm Calm - 0.10 in   Overcast